Back to catalog

DMSP 5D-2 F11 DEB

AliveSSO
NORAD 28343·DEBRIS·🇺🇸 United States

Launched Nov 28, 1991 from Vandenberg Space Force Base

Loading…

Next Passes (next 24 hours)

TLE

FreshSource: Space-Track

Epoch: Sep 13, 2026, 12:35 UTC

1 28343U 91082BG  26256.52471717  .00003650  00000-0  11780-2 0  9998
2 28343  98.8867 353.5769 0058141 291.5763  67.9234 14.38848451148413

Track DMSP 5D-2 F11 DEB in real time with AllMySat

Download on the App Store